Location: Aranbee
(34.0885°N, 118.2342°W)
Time: 03:04:00
(UTC+00:00)

Hubble Space Telescope - Pass Details

Date: 27 October 2020
Orbit: 536 x 540 km, 28.5° (Epoch: 30 November)

Event Time Altitude Azimuth Distance (km) Brightness Sun altitude
Rises 01:45:38 0° 259° (W) 2,667 6.8 -9.0°
Reaches altitude 10° 01:48:50 10° 233° (SW) 1,775 4.5 -9.6°
Maximum altitude 01:50:57 14° 202° (SSW) 1,551 3.5 -10.1°
Drops below altitude 10° 01:53:03 10° 171° (S) 1,774 3.4 -10.5°
Sets 01:56:15 0° 145° (SE) 2,663 4.0 -11.2°
